Regional Weather Roundup
Issued by NWS State College, PA

Home | Current Version | Previous Version | Text Only | Print | Product List | Glossary On
Versions: 1 2 3 4 5 6 7 8 9 10 11 12 13 14 15 16 17 18 19 20 21 22 23 24 25 26 27 28 29 30 31 32 33 34 35 36 37 38 39 40 41 42 43 44 45 46 47 48 49 50
000
ASUS41 KCTP 221310
RWRCTP

REGIONAL WEATHER ROUNDUP
NATIONAL WEATHER SERVICE STATE COLLEGE PA
900 AM EDT TUE MAY 22 2018

Note: "fair" indicates few or no clouds below 12,000 feet with no
significant weather and/or obstructions to visibility.

* = STATION THAT DOES NOT REPORT PRECIPITATION /E.G. RAIN...SNOW...ETC/
    THUNDER OR FOG.

PAZ002>004-007>009-013>016-020>023-029>032-221400-
WESTERN PENNSYLVANIA

CITY           SKY/WX    TMP DP  RH WIND       PRES   REMARKS
ERIE           LGT RAIN  68  63  84 SW6       30.00R
MEADVILLE      CLOUDY    64  64 100 S7        30.03F
FRANKLIN*      LGT RAIN  62  61  96 S7        30.06S
NEW CASTLE     CLOUDY    65  65 100 VRB3      30.05S
BEAVER COUNTY  PTSUNNY   64  64 100 S6        30.06R FOG
BUTLER*        PTSUNNY   66  64  94 S5        30.06S FOG
PITTSBURGH INT CLOUDY    66  64  93 S7        30.05S
PITTSBURGH     CLOUDY    65  65 100 S6        30.06R FOG
INDIANA*       PTSUNNY   66  66 100 CALM      30.11S FOG
LATROBE        LGT RAIN  64  64 100 S6        30.08S
WASHINGTON CO* LGT RAIN  65  64  97 S5        30.10R
$$

PAZ004>006-010>012-017>019-024>028-033>037-041-042-045-046-049>053-221400-
CENTRAL PENNSYLVANIA

CITY           SKY/WX    TMP DP  RH WIND       PRES   REMARKS
BRADFORD       CLOUDY    61  60  97 S6        30.06F
DUBOIS         CLOUDY    64  63  96 VRB3      30.06S
CLEARFIELD     LGT RAIN  60  60 100 N3        30.08S VSB 1/4
JOHNSTOWN      RAIN      63  61  93 S5        30.10S FOG
ALTOONA        LGT RAIN  68  63  84 S6        30.09S
STATE COLLEGE  LGT RAIN  61  59  94 CALM      30.09S
WILLIAMSPORT   LGT RAIN  62  60  93 E5        30.07S FOG
SELINSGROVE    CLOUDY    64  61  90 S5        30.09F
FT INDIANTOWN  CLOUDY    63  62  98 NE3       30.12S
CAPITAL CITY   LGT RAIN  66  61  84 E7        30.10F
HARRISBURG     CLOUDY    65  61  87 SE3       30.11R
YORK           CLOUDY    66  57  72 S3        30.11S
$$

PAZ038>040-043-044-047-048-054-055-060>062-067>071-221400-
EASTERN PENNSYLVANIA

CITY           SKY/WX    TMP DP  RH WIND       PRES   REMARKS
SCRANTON       LGT RAIN  59  58  96 E7        30.12F FOG
MOUNT POCONO   RAIN      55  55 100 E5        30.16S FOG
ALLENTOWN      CLOUDY    62  57  83 E7        30.15S
QUAKERTOWN*    CLOUDY    61  61 100 CALM      30.16S
READING        LGT RAIN  62  62 100 CALM      30.13S
LANCASTER      CLOUDY    66  63  90 E6        30.12S
COATESVILLE    PTSUNNY   63  57  82 S5        30.15F
POTTSTOWN      LGT RAIN  61  59  93 CALM      30.16S
BLUE BELL      CLOUDY    61  59  94 CALM      30.17S
DOYLESTOWN     LGT RAIN  62  56  80 CALM      30.15F
WILLOW GROVE   NOT AVBL
NORTH PHILA    CLOUDY    64  56  75 SE7       30.17S
PHILADELPHIA   CLOUDY    63  56  78 SE5       30.16R
$$




USA.gov is the U.S. government's official web portal to all federal, state and local government web resources and services.